BREEZE-M DEB, 43401

Orbit data source: Space-Track

BREEZE-M DEB, 43401 is space debris in HEO originally from a launch on Thu, 17 May 2012 UTC launched from the Tyuratam Missile And Space Complex (TTMTR). Debris objects in space refer to the collection of defunct objects orbiting the Earth. Examples of debris include non-operational satellites, rocket bodies, and fragments generated from explosions, collisions, or faulty payload assembly.

Loading next visibility...
Identifier
43401, 2012-026N
Orbit
HEO
Country
Flag of CISCIS
Related business
Manufacturer
Khrunichev
Mission
Spacecraft
Bus & Motor
Unknown
Mass
Unknown
Launch date (UTC)
2012-05-17 (13 years ago)
Launch vehicle
Unknown
Launch site
Tyuratam Missile And Space Complex (TTMTR)
Object type
Payload
Rocket body
Debris
Shape & HBR
Unknown
Radar Cross Section
RCS unknown

Expand to show TLE details & history
Last TLE update: 17 hours ago

TLE from 17 hours ago
0 BREEZE-M DEB
1 43401U 12026N   25261.14052713 -.00000132  00000-0  00000-0 0  9999
2 43401   9.5675 163.3988 4090354 354.2210 186.7684  1.75797247 84063
Epoch: 2025-09-18T03:22Z
TLE epoch observation values (Epoch: 2025-09-18T03:22:21.544Z)
Latitude
0.44269°
Longitude
-67.12026°
Altitude
34,466.248 km
Speed
2.403 km/s
True Right ascension
22h 43m 06s
True Declination
0° 26' 32"
Sunlit
Object was in daylight at epoch
Visualization orbit readout
Latitude
Unknown
Longitude
Unknown
Altitude
Unknown
Speed
Unknown
Apparent Right ascension
Unknown
Apparent Declination
Unknown
Sunlit
N/A
Visualization observer readout
Local Sidereal Time
13:00:58
Azimuth
Unknown
Elevation
Unknown
Doppler factor
Unknown
Orbital elements
Apogee altitude
34,486.219 km
Perigee altitude
10,760.813 km
Semi-major axis
29,001.653 km
Eccentricity
0.40904
Inclination
9.5675°
RAAN
163.3988°
Arg. of periapsis
354.221°
True anomaly
183.113°
Mean anomaly
186.7684°
Eccentric anomaly
184.8052°
Mean motion
0.43945 °/min
Orbital period
819.21 mins
BSTAR
0
Loading maneuver chart data...
Computing Atmospheric mass density...
Loading historical data...
Loading historical data...
Loading historical data...
Loading historical data...
Loading historical data...
Loading historical data...
Loading historical data...

Documentation

Showing up to 5 results
|